TimeCST,TemperatureF,Dew PointF,Humidity,Sea Level PressureIn,VisibilityMPH,Wind Direction,Wind SpeedMPH,Gust SpeedMPH,PrecipitationIn,Events,Conditions,WindDirDegrees,DateUTC
12:15 AM,15.8,15.8,100,30.08,10.0,NE,4.6,-,N/A,,Clear,40,2013-02-27 06:15:00
12:35 AM,15.8,14.0,93,30.09,10.0,NNE,4.6,-,N/A,,Clear,30,2013-02-27 06:35:00
12:55 AM,14.0,6.8,73,30.09,10.0,North,4.6,-,N/A,,Clear,10,2013-02-27 06:55:00
1:15 AM,14.0,12.2,93,30.09,10.0,North,3.5,-,N/A,,Clear,350,2013-02-27 07:15:00
1:35 AM,10.4,8.6,92,30.10,10.0,NNW,6.9,-,N/A,,Clear,340,2013-02-27 07:35:00
1:55 AM,10.4,10.4,100,30.10,10.0,North,8.1,-,N/A,,Clear,350,2013-02-27 07:55:00
2:15 AM,10.4,10.4,100,30.10,10.0,NNW,9.2,-,N/A,,Clear,340,2013-02-27 08:15:00
2:35 AM,8.6,8.6,100,30.11,10.0,NNW,8.1,-,N/A,,Clear,340,2013-02-27 08:35:00
2:55 AM,10.4,10.4,100,30.10,10.0,North,8.1,-,N/A,,Partly Cloudy,350,2013-02-27 08:55:00
3:15 AM,10.4,10.4,100,30.10,10.0,North,6.9,-,N/A,,Mostly Cloudy,350,2013-02-27 09:15:00
3:35 AM,14.0,14.0,100,30.10,10.0,North,9.2,-,N/A,,Overcast,350,2013-02-27 09:35:00
3:55 AM,15.8,14.0,93,30.10,10.0,North,9.2,-,N/A,,Overcast,350,2013-02-27 09:55:00
4:15 AM,17.6,15.8,93,30.11,10.0,North,10.4,-,N/A,,Overcast,360,2013-02-27 10:15:00
4:35 AM,17.6,15.8,93,30.11,10.0,North,11.5,-,N/A,,Overcast,350,2013-02-27 10:35:00
4:55 AM,17.6,17.6,100,30.11,10.0,North,10.4,-,N/A,,Overcast,360,2013-02-27 10:55:00
5:15 AM,19.4,17.6,93,30.12,10.0,North,8.1,-,N/A,,Overcast,360,2013-02-27 11:15:00
5:35 AM,19.4,17.6,93,30.12,10.0,North,11.5,-,N/A,,Overcast,350,2013-02-27 11:35:00
5:55 AM,19.4,17.6,93,30.13,10.0,North,11.5,-,N/A,,Overcast,350,2013-02-27 11:55:00
6:15 AM,19.4,17.6,93,30.13,10.0,NNW,10.4,-,N/A,,Overcast,340,2013-02-27 12:15:00
6:35 AM,19.4,17.6,93,30.14,10.0,North,12.7,-,N/A,,Overcast,350,2013-02-27 12:35:00
6:55 AM,21.2,19.4,93,30.14,10.0,North,11.5,-,N/A,,Overcast,350,2013-02-27 12:55:00
7:15 AM,21.2,19.4,93,30.15,10.0,North,12.7,-,N/A,,Overcast,350,2013-02-27 13:15:00
7:35 AM,21.2,19.4,93,30.15,10.0,North,13.8,-,N/A,,Overcast,350,2013-02-27 13:35:00
7:55 AM,21.2,19.4,93,30.15,10.0,North,16.1,-,N/A,,Overcast,350,2013-02-27 13:55:00
8:15 AM,21.2,19.4,93,30.16,10.0,North,17.3,-,N/A,,Overcast,350,2013-02-27 14:15:00
8:35 AM,21.2,19.4,93,30.16,10.0,North,17.3,-,N/A,,Overcast,360,2013-02-27 14:35:00
8:55 AM,21.2,19.4,93,30.17,10.0,North,17.3,-,N/A,,Overcast,360,2013-02-27 14:55:00
9:15 AM,21.2,19.4,93,30.17,10.0,North,18.4,-,N/A,,Overcast,360,2013-02-27 15:15:00
9:35 AM,23.0,19.4,86,30.17,10.0,North,20.7,-,N/A,,Overcast,360,2013-02-27 15:35:00
9:55 AM,21.2,19.4,93,30.18,10.0,North,20.7,-,N/A,,Overcast,10,2013-02-27 15:55:00
10:15 AM,23.0,21.2,93,30.18,10.0,North,19.6,-,N/A,,Overcast,10,2013-02-27 16:15:00
10:35 AM,24.8,19.4,80,30.18,10.0,North,20.7,26.5,N/A,,Overcast,10,2013-02-27 16:35:00
10:55 AM,24.8,23.0,93,30.18,10.0,North,20.7,-,N/A,,Overcast,10,2013-02-27 16:55:00
11:15 AM,24.8,19.4,80,30.19,10.0,North,21.9,-,N/A,,Overcast,360,2013-02-27 17:15:00
11:35 AM,24.8,21.2,86,30.18,10.0,North,24.2,-,N/A,,Overcast,360,2013-02-27 17:35:00
11:55 AM,24.8,21.2,86,30.19,10.0,North,21.9,-,N/A,,Overcast,10,2013-02-27 17:55:00
12:15 PM,24.8,21.2,86,30.19,10.0,North,24.2,-,N/A,,Overcast,360,2013-02-27 18:15:00
12:35 PM,24.8,21.2,86,30.18,10.0,North,24.2,28.8,N/A,,Overcast,360,2013-02-27 18:35:00
12:55 PM,24.8,21.2,86,30.18,10.0,North,25.3,-,N/A,,Mostly Cloudy,360,2013-02-27 18:55:00
1:15 PM,24.8,21.2,86,30.18,10.0,North,26.5,-,N/A,,Mostly Cloudy,360,2013-02-27 19:15:00
1:35 PM,24.8,21.2,86,30.19,10.0,North,23.0,-,N/A,,Mostly Cloudy,360,2013-02-27 19:35:00
1:55 PM,24.8,21.2,86,30.19,10.0,North,25.3,-,N/A,,Mostly Cloudy,360,2013-02-27 19:55:00
2:15 PM,24.8,21.2,86,30.19,10.0,North,19.6,-,N/A,,Scattered Clouds,360,2013-02-27 20:15:00
2:55 PM,24.8,21.2,86,30.19,10.0,North,24.2,-,N/A,,Clear,360,2013-02-27 20:55:00
3:15 PM,24.8,19.4,80,30.20,10.0,North,21.9,-,N/A,,Clear,360,2013-02-27 21:15:00
3:35 PM,24.8,21.2,86,30.21,10.0,North,20.7,-,N/A,,Clear,360,2013-02-27 21:35:00
3:55 PM,24.8,21.2,86,30.20,10.0,North,23.0,-,N/A,,Clear,360,2013-02-27 21:55:00
4:15 PM,26.6,21.2,80,30.21,10.0,North,20.7,-,N/A,,Clear,360,2013-02-27 22:15:00
4:35 PM,24.8,21.2,86,30.21,10.0,North,20.7,-,N/A,,Clear,360,2013-02-27 22:35:00
4:55 PM,24.8,21.2,86,30.22,10.0,North,19.6,-,N/A,,Clear,360,2013-02-27 22:55:00
5:15 PM,24.8,19.4,80,30.22,10.0,North,18.4,-,N/A,,Clear,360,2013-02-27 23:15:00
5:35 PM,24.8,19.4,80,30.23,10.0,North,18.4,-,N/A,,Clear,360,2013-02-27 23:35:00
5:55 PM,23.0,19.4,86,30.23,10.0,North,18.4,-,N/A,,Clear,360,2013-02-27 23:55:00
6:15 PM,23.0,19.4,86,30.23,10.0,North,18.4,-,N/A,,Clear,10,2013-02-28 00:15:00
9:35 PM,17.6,14.0,86,30.25,10.0,North,16.1,-,N/A,,Clear,10,2013-02-28 03:35:00
9:55 PM,17.6,12.2,79,30.25,10.0,North,17.3,-,N/A,,Clear,360,2013-02-28 03:55:00
10:15 PM,17.6,14.0,86,30.25,10.0,North,17.3,-,N/A,,Clear,360,2013-02-28 04:15:00
10:35 PM,15.8,15.8,100,30.24,10.0,North,18.4,-,N/A,,Mostly Cloudy,360,2013-02-28 04:35:00
10:55 PM,17.6,14.0,86,30.24,10.0,North,19.6,-,N/A,,Overcast,360,2013-02-28 04:55:00
11:15 PM,17.6,15.8,93,30.24,10.0,North,17.3,-,N/A,,Overcast,10,2013-02-28 05:15:00
11:35 PM,17.6,15.8,93,30.24,10.0,North,17.3,-,N/A,,Overcast,10,2013-02-28 05:35:00
11:55 PM,15.8,14.0,93,30.25,10.0,North,15.0,-,N/A,,Scattered Clouds,10,2013-02-28 05:55:00